Location: Balaclava NSW 2575, Australia
(34.4510°S, 150.4953°E)
Time: 16:28:18
(UTC+10:00)

Envisat - Pass Details

Date: 23 May 2021
Orbit: 764 x 766 km, 98.1° (Epoch: 18 June)

Event Time Altitude Azimuth Distance (km) Brightness Sun altitude
Rises 03:29:24 0° 54° (NE) 3,226 6.8 -41.0°
Reaches altitude 10° 03:32:21 10° 72° (ENE) 2,309 6.1 -40.4°
Maximum altitude 03:35:44 18° 114° (ESE) 1,818 5.4 -39.7°
Enters shadow 03:35:57 18° 117° (ESE) 1,821 5.4 -39.6°
